Flag for Australia Weather past 2 weeks in Geraldton, Western Australia, Australia

Now
62 °F

Overcast.


Feels Like: 62 °F
Forecast: 61 / 72 °F
Wind: No wind

Location: Geraldton Airport

Current Time: Oct 25, 2014 at 5:41:14 AM

Latest Report: Oct 25, 2014 at 3:00 AM


Visibility: N/A

Pressure: 30.02 "Hg

Humidity: 85%

Dew point: 57 °F

Location of GeraldtonLocation

Historic Weather in Geraldton — Graph

°F

Geraldton temperature yesterday

Maximum temperature yesterday: 78 °F (at 2:00 PM)
Minimum temperature yesterday: 52 °F (at 5:00 AM)
Average temperature yesterday: 66 °F

Past Weeks' High & Low Weather Summary

 TemperatureHumidityPressure
High90 °F (Oct 14, 12:00 PM)96% (Oct 10, 6:00 AM)30.18 "Hg (Oct 10, 6:00 AM)
Low47 °F (Oct 10, 6:00 AM)12% (Oct 14, 12:00 PM)29.77 "Hg (Oct 15, 2:00 PM)
Average66 °F67%29.99 "Hg
* Reported Oct 10 3:00 AM — Oct 25 3:00 AM, Geraldton, Weather by CustomWeather, © 2014

Note: Actual official high and low records may vary slightly from our data, if they occured in-between our weather recording intervals... More about our weather records

Advertising

Geraldton weather history for previous 24 hours

 ConditionsComfort  
Time TempWeatherWind HumidityBarometerVisibility
3:00 AM
Oct 25
62 °FOvercast.No wind85%30.02 "HgN/A
2:00 AM60 °FCool.5 mph85%30.01 "HgN/A
12:00 AM64 °FPassing clouds.8 mph79%30.01 "HgN/A
11:00 PM
Oct 24
65 °FMild.8 mph80%30.01 "HgN/A
9:00 PM67 °FPassing clouds.12 mph77%30.02 "HgN/A
8:00 PM67 °FMild.13 mph78%29.99 "HgN/A
6:00 PM69 °FMild.18 mph72%29.97 "HgN/A
5:00 PM71 °FMild.17 mph63%29.95 "HgN/A
3:00 PM76 °FScattered clouds.16 mph39%29.95 "Hg22 mi
2:00 PM78 °FWarm.15 mph41%29.95 "HgN/A
12:00 PM74 °FPassing clouds.16 mph50%29.97 "Hg19 mi
11:00 AM76 °FMild.14 mph48%29.98 "HgN/A
9:00 AM72 °FPassing clouds.6 mph52%30.01 "Hg19 mi
8:00 AM66 °FMild.8 mph66%30.02 "HgN/A
6:00 AM53 °FScattered clouds.No wind95%30.02 "Hg16 mi
5:00 AM52 °FCool.2 mph94%30.01 "HgN/A
Weather by CustomWeather, © 2014

See weather overviewHow to use our weather pages